Location: *
(35.8942°N, 23.3025°E)
Time: 23:13:29
(UTC+00:00)

Cosmos 1666 Rocket - Pass Details

Date: 21 September 2021
Orbit: 603 x 633 km, 82.5° (Epoch: 22 October)

Event Time Altitude Azimuth Distance (km) Brightness Sun altitude
Rises 01:56:47 0° 357° (N) 2,862 7.2 -27.8°
Reaches altitude 10° 01:59:02 10° 2° (N) 1,954 6.4 -27.4°
Maximum altitude 02:03:18 58° 81° (E) 705 4.0 -26.6°
Enters shadow 02:03:40 56° 106° (ESE) 723 4.0 -26.5°
